Probability
6 3 0 0 0 0 0 0 0 0 0 0 0 0 0 0 0 0 0 0 0 0 0 0 0 3 6 6 6 6 3 0 0 0 0 0 0 0 0 0 0 0 0
6 3 0 0 0 0 0 0 0 0 0 0 0 0 0 0 0 0 0 0 0 0 0 0 0 0 3 3 6 6 3 3 3 3 3 0 0 0 0 0 0 0 0
3 3 0 0 0 0 0 0 0 0 0 0 0 0 0 0 0 0 0 0 0 0 0 0 0 0 0 3 6 6 6 6 6 3 3 3 3 0 0 0 0 0 0
0 0 0 0 0 0 0 0 0 0 0 0 0 0 0 0 0 0 0 0 0 0 0 0 0 0 0 0 3 6 6 6 6 6 3 3 3 3 3 0 0 0 0
0 0 0 0 0 0 0 0 0 0 0 0 0 0 0 0 0 0 0 0 0 0 0 0 0 0 0 0 0 0 3 6 6 6 6 6 3 3 0 3 3 0 0
0 0 0 0 0 0 0 0 0 0 0 0 0 0 0 0 0 0 0 0 0 0 0 0 0 0 0 0 0 0 3 3 3 6 6 6 6 3 3 0 0 3 0
0 0 0 0 0 0 0 0 0 0 0 0 0 0 0 0 0 0 0 0 0 0 0 0 0 0 0 0 0 0 0 3 3 3 3 3 3 3 0 0 0 0 0
0 0 0 0 0 0 0 0 0 0 0 0 0 0 0 0 0 0 0 0 0 0 0 0 0 0 0 0 0 0 0 0 0 3 3 3 3 0 0 0 0 0 0
0 0 0 0 0 0 0 0 0 0 0 0 0 0 0 0 0 0 0 0 0 0 0 0 0 0 0 0 0 0 0 0 0 0 3 3 3 0 0 0 0 0 0
0 0 0 0 0 0 0 0 0 0 0 0 0 0 0 0 0 0 0 0 0 0 0 0 0 0 0 0 0 0 0 0 0 0 0 3 3 3 0 0 0 0 0
0 0 0 0 0 0 0 0 0 0 0 0 0 0 0 0 0 0 0 0 0 0 0 0 0 0 0 0 0 0 0 0 0 0 0 0 3 3 3 0 0 0 0
0 0 0 0 0 0 0 0 0 0 0 0 0 0 0 0 0 0 0 0 0 0 0 0 0 0 0 0 0 0 0 0 0 0 0 0 0 0 3 0 0 0 0
0 0 0 0 0 0 0 0 0 0 0 0 0 0 0 0 0 0 0 0 0 0 0 0 0 0 0 0 0 0 0 0 0 0 0 0 0 0 0 0 0 0 0
0 0 0 0 0 0 0 0 0 0 0 0 0 0 0 0 0 0 0 0 0 0 0 0 0 0 0 0 0 0 0 0 0 0 0 0 0 0 0 0 0 0 0
0 0 0 0 0 0 0 0 0 0 0 0 0 0 0 0 0 0 0 0 0 0 0 0 0 0 0 0 0 0 0 0 0 0 0 0 0 0 0 0 0 0 0
0 0 0 0 0 0 0 0 0 0 0 0 0 0 0 0 0 0 0 0 0 0 0 0 0 0 0 0 0 0 0 0 0 0 0 0 0 0 0 0 0 0 0
0 0 0 0 0 0 0 0 0 0 0 0 0 0 0 0 0 0 0 0 0 0 0 0 0 0 0 0 0 0 0 0 0 0 0 0 0 0 0 0 0 0 0
0 0 0 0 0 0 0 0 0 0 0 0 0 0 0 0 0 0 0 0 0 0 0 0 0 0 0 0 0 0 0 0 0 0 0 0 0 0 0 0 0 0 0
0 0 0 0 0 0 0 0 0 0 0 0 0 0 0 0 0 0 0 0 0 0 0 0 0 0 0 0 0 0 0 0 0 0 0 0 0 0 0 0 0 0 0
0 0 0 0 0 0 0 0 0 0 0 0 0 0 0 0 0 0 0 0 0 0 0 0 0 0 0 0 0 0 0 0 0 0 0 0 0 0 0 0 0 0 0
0 0 0 0 0 0 0 0 0 0 0 0 0 0 0 0 0 0 0 0 0 0 0 0 0 0 0 0 0 0 0 0 0 0 0 0 0 0 0 0 0 0 0
0 0 0 0 0 0 0 0 0 0 0 0 0 0 0 0 0 0 0 0 0 0 0 0 0 0 0 0 0 0 0 0 0 0 0 0 0 0 0 0 0 0 0
0 0 0 0 0 0 0 0 0 0 0 0 0 0 0 0 0 0 0 0 0 0 0 0 0 0 0 0 0 0 0 0 0 0 0 0 0 0 0 0 0 0 0
0 0 0 0 0 0 0 0 0 0 0 0 0 0 0 0 0 0 0 0 0 0 0 0 0 0 0 0 0 0 0 0 0 0 0 0 0 0 0 0 0 0 0
0 0 0 0 0 0 0 0 0 0 0 0 0 0 0 0 0 0 0 0 0 0 0 0 0 0 0 0 0 0 0 0 0 0 0 0 0 0 0 0 0 0 0
0 0 0 0 0 0 0 0 0 0 0 0 0 0 0 0 0 0 0 0 0 0 0 0 0 0 0 0 0 0 0 0 0 0 0 0 0 0 0 0 0 0 0
Height
5816 5818 5820 5822 5823 5825 5827 5828 5829 5830 5831 5832 5833 5833 5834 5834 5834 5834 5834 5833 5833 5832 5832 5831 5830 5829 5828 5827 5825 5824 5823 5821 5820 5818 5816 5814 5812 5810 5808 5806 5803 5801 5799
5808 5810 5813 5814 5816 5818 5820 5821 5822 5824 5825 5826 5826 5827 5827 5828 5828 5828 5827 5827 5827 5826 5825 5824 5823 5822 5821 5820 5819 5818 5816 5815 5814 5812 5810 5808 5806 5804 5802 5800 5797 5795 5793
5800 5802 5805 5807 5809 5810 5812 5814 5815 5816 5818 5819 5820 5820 5821 5821 5821 5821 5821 5820 5820 5819 5818 5817 5816 5815 5814 5813 5812 5810 5809 5808 5806 5805 5803 5801 5799 5797 5795 5793 5791 5789 5787
5791 5794 5796 5798 5800 5802 5804 5806 5808 5809 5810 5811 5812 5813 5813 5814 5814 5813 5813 5813 5812 5812 5811 5810 5808 5807 5806 5805 5803 5802 5801 5800 5799 5797 5796 5794 5792 5790 5789 5786 5784 5782 5780
5782 5784 5787 5790 5792 5794 5796 5798 5799 5801 5802 5803 5804 5805 5805 5806 5806 5806 5805 5805 5804 5803 5802 5801 5799 5798 5797 5795 5794 5793 5793 5792 5790 5789 5788 5786 5784 5783 5781 5779 5777 5775 5773
5772 5775 5778 5781 5783 5786 5787 5789 5791 5792 5793 5794 5795 5796 5796 5797 5797 5797 5797 5796 5796 5794 5793 5791 5790 5788 5787 5786 5785 5784 5783 5783 5782 5781 5779 5778 5776 5775 5773 5771 5769 5767 5765
5763 5766 5769 5772 5774 5777 5779 5780 5782 5783 5784 5785 5786 5787 5787 5787 5788 5788 5788 5787 5786 5784 5783 5781 5780 5778 5776 5775 5775 5774 5774 5773 5773 5772 5771 5769 5768 5767 5765 5763 5761 5760 5758
5753 5756 5760 5763 5765 5767 5769 5771 5773 5774 5775 5776 5776 5777 5777 5779 5779 5778 5778 5777 5775 5774 5772 5770 5769 5767 5765 5765 5764 5764 5764 5764 5763 5762 5762 5761 5759 5758 5757 5755 5753 5752 5750
5742 5746 5750 5753 5755 5757 5760 5762 5764 5765 5766 5766 5766 5766 5767 5768 5769 5769 5767 5766 5764 5763 5761 5760 5758 5756 5755 5754 5754 5754 5753 5753 5753 5753 5752 5751 5750 5749 5748 5747 5745 5744 5742
5732 5736 5740 5743 5746 5748 5751 5752 5754 5755 5756 5756 5756 5756 5757 5756 5756 5757 5757 5755 5753 5751 5750 5749 5747 5746 5745 5744 5744 5744 5743 5743 5743 5742 5742 5741 5741 5740 5739 5738 5736 5735 5734
5722 5726 5729 5733 5736 5738 5741 5742 5744 5745 5746 5746 5746 5746 5746 5745 5744 5743 5744 5744 5742 5740 5739 5737 5736 5735 5734 5733 5733 5733 5733 5733 5732 5732 5732 5731 5731 5730 5729 5728 5727 5726 5725
5712 5716 5719 5723 5726 5728 5731 5732 5734 5734 5735 5736 5735 5735 5735 5735 5734 5732 5731 5730 5728 5728 5726 5725 5724 5723 5722 5722 5722 5722 5722 5722 5721 5721 5721 5721 5720 5720 5719 5718 5717 5716 5715
5702 5706 5709 5712 5716 5718 5720 5722 5723 5724 5725 5724 5724 5724 5724 5723 5722 5719 5717 5716 5715 5714 5713 5712 5711 5710 5709 5709 5709 5709 5710 5710 5710 5709 5709 5709 5709 5709 5708 5708 5707 5706 5705
5692 5696 5699 5702 5705 5708 5710 5711 5712 5713 5713 5714 5713 5713 5712 5711 5709 5707 5705 5702 5700 5700 5699 5699 5698 5697 5696 5695 5696 5696 5696 5696 5697 5696 5696 5697 5697 5697 5696 5696 5696 5695 5695
5683 5686 5689 5692 5695 5697 5698 5700 5701 5702 5702 5702 5701 5701 5700 5698 5696 5694 5691 5688 5685 5684 5685 5685 5684 5683 5681 5681 5681 5681 5681 5682 5682 5682 5683 5683 5683 5684 5684 5684 5684 5684 5684
5674 5677 5679 5681 5684 5686 5687 5689 5690 5691 5690 5690 5689 5688 5687 5685 5683 5680 5677 5673 5669 5667 5667 5670 5668 5668 5666 5665 5665 5665 5665 5666 5666 5666 5667 5668 5669 5670 5670 5671 5671 5671 5672
5664 5666 5669 5671 5673 5675 5677 5678 5679 5679 5679 5678 5676 5675 5673 5671 5668 5665 5662 5658 5655 5652 5650 5653 5652 5651 5650 5649 5649 5649 5649 5650 5650 5651 5651 5653 5654 5655 5656 5657 5657 5658 5659
5655 5657 5659 5661 5663 5665 5666 5667 5668 5668 5667 5666 5664 5662 5660 5657 5654 5650 5647 5644 5641 5638 5636 5635 5636 5635 5634 5633 5633 5633 5633 5634 5634 5635 5636 5637 5638 5640 5641 5642 5643 5645 5646
5646 5648 5650 5652 5653 5654 5655 5656 5656 5656 5655 5653 5651 5649 5646 5643 5639 5635 5633 5630 5627 5624 5621 5620 5620 5620 5618 5617 5616 5617 5617 5618 5619 5620 5620 5621 5623 5624 5626 5627 5629 5631 5633
5639 5639 5640 5642 5643 5643 5644 5644 5644 5643 5642 5639 5637 5634 5631 5628 5625 5622 5619 5616 5613 5610 5607 5605 5605 5604 5603 5602 5600 5600 5601 5602 5603 5604 5604 5605 5607 5609 5611 5613 5615 5618 5620
5631 5632 5632 5632 5632 5633 5633 5632 5632 5630 5628 5626 5623 5620 5617 5613 5610 5607 5604 5602 5598 5595 5593 5591 5590 5589 5588 5586 5586 5585 5585 5586 5586 5588 5589 5591 5593 5594 5596 5599 5601 5604 5607
5625 5624 5624 5624 5623 5622 5621 5621 5619 5618 5615 5612 5609 5606 5603 5599 5596 5592 5589 5586 5582 5580 5578 5576 5575 5574 5573 5572 5571 5570 5569 5570 5571 5574 5574 5576 5578 5580 5582 5585 5588 5591 5594
5618 5617 5616 5615 5613 5612 5611 5609 5607 5604 5602 5599 5596 5593 5589 5585 5581 5578 5575 5572 5568 5565 5563 5562 5560 5559 5559 5558 5556 5555 5554 5554 5557 5559 5560 5562 5564 5567 5569 5572 5576 5579 5582
5611 5610 5608 5607 5605 5602 5600 5598 5595 5592 5589 5586 5583 5579 5575 5571 5568 5564 5561 5558 5555 5552 5549 5547 5546 5545 5543 5541 5540 5540 5540 5540 5542 5543 5545 5548 5551 5554 5557 5560 5563 5566 5570
5605 5603 5601 5598 5596 5593 5590 5588 5585 5581 5578 5574 5570 5566 5562 5558 5555 5551 5548 5545 5542 5539 5535 5532 5530 5528 5526 5526 5525 5525 5526 5527 5528 5530 5533 5536 5538 5541 5544 5547 5550 5554 5558
5599 5596 5593 5590 5587 5584 5581 5577 5574 5570 5567 5563 5559 5554 5550 5545 5541 5537 5534 5531 5528 5525 5521 5518 5515 5513 5511 5511 5511 5512 5514 5515 5516 5519 5521 5524 5526 5528 5531 5535 5538 5542 5547
Wind_Speed
39 38 38 37 37 36 35 35 34 34 33 32 31 31 30 29 28 28 28 29 29 29 29 30 30 30 31 31 31 32 32 32 32 32 33 33 33 33 33 32 32 32 31
42 40 39 38 38 38 37 37 37 36 35 34 33 32 32 31 31 31 31 32 32 32 32 32 33 33 34 34 33 33 33 33 34 34 35 35 34 34 35 34 33 33 33
44 43 42 41 40 40 39 39 38 38 37 36 35 34 34 34 34 34 34 34 34 34 35 35 35 36 36 36 36 36 35 35 36 36 37 37 36 36 35 35 35 34 33
46 45 45 43 42 41 41 40 40 39 38 37 37 36 36 36 36 37 37 36 37 37 37 38 38 39 39 39 38 38 38 38 38 38 38 39 38 36 36 36 36 35 34
47 46 46 45 44 42 42 42 41 40 40 39 39 39 39 38 38 39 39 39 39 39 40 40 41 41 41 41 40 40 40 40 40 39 40 40 39 38 37 37 36 36 34
48 47 47 45 44 43 42 42 42 42 42 41 41 41 41 41 40 40 41 41 41 41 42 42 43 43 43 43 42 42 41 41 41 41 40 40 40 38 38 37 36 35 35
49 47 46 46 44 44 44 43 43 43 43 43 43 43 43 43 42 42 42 42 42 43 44 44 44 44 45 45 44 44 43 42 42 42 40 40 40 40 39 38 36 36 35
50 49 48 46 45 45 45 45 44 43 44 44 45 45 45 45 45 44 44 44 45 46 46 45 45 45 45 45 45 44 44 43 42 42 42 41 41 40 39 38 37 36 35
52 52 50 49 47 45 44 44 45 44 44 45 46 46 46 45 45 45 45 46 46 46 46 46 45 45 45 45 44 44 44 44 44 43 43 41 40 40 40 39 38 37 37
53 52 52 50 48 47 46 44 43 43 44 44 45 46 46 46 47 47 47 47 47 46 46 46 46 45 46 46 45 45 45 45 45 43 42 42 41 41 40 40 40 38 37
51 51 51 50 48 48 47 45 43 43 44 44 44 45 46 47 48 48 48 49 48 48 48 48 48 48 47 47 46 45 45 45 45 45 44 43 42 41 41 40 40 39 38
50 49 49 48 47 47 46 45 44 44 44 45 45 46 47 48 47 49 50 51 51 50 50 50 50 49 48 48 47 46 45 46 45 45 45 43 42 42 41 41 41 40 39
48 49 47 45 45 45 45 45 45 45 45 45 46 47 48 48 48 49 50 51 53 53 53 52 50 50 50 50 49 48 48 47 47 47 46 46 45 44 44 44 43 41 40
45 45 46 45 44 44 44 45 45 46 46 46 46 47 48 49 50 50 52 53 54 55 54 52 50 51 50 51 52 52 51 50 49 48 48 47 46 45 44 45 44 42 40
41 42 44 45 45 45 44 44 45 46 47 48 48 49 50 50 52 53 54 55 55 56 55 54 54 53 52 54 55 55 54 54 52 52 51 49 48 48 47 46 44 43 42
40 41 41 43 44 44 44 44 45 46 48 50 51 51 51 51 53 54 54 55 55 56 55 53 54 55 54 55 56 57 57 56 55 54 53 52 52 51 49 47 46 45 43
36 37 39 41 42 42 44 44 45 46 48 49 51 52 52 53 54 54 54 54 54 54 54 54 54 54 55 55 56 56 57 57 55 54 53 53 53 52 51 50 47 46 44
32 34 36 38 40 41 42 43 43 44 46 48 50 51 52 53 53 54 53 53 53 53 55 55 54 55 56 56 55 55 55 54 53 53 53 53 53 52 51 50 48 45 44
29 30 33 35 37 40 43 43 43 44 46 48 50 51 51 51 51 50 50 51 51 53 53 54 53 53 53 53 53 54 55 54 52 51 53 53 53 52 51 48 46 45 44
27 28 30 33 35 38 41 43 44 45 47 49 50 51 51 50 49 48 49 50 51 52 52 53 53 52 51 50 51 52 53 52 53 52 52 51 50 50 48 47 45 44 42
25 27 29 32 34 36 39 42 44 45 47 49 49 49 50 51 50 50 50 51 52 52 52 53 52 51 51 51 51 51 51 50 51 50 50 49 47 47 47 45 43 42 40
23 25 28 31 34 36 39 42 44 46 47 47 46 48 49 51 51 51 52 51 50 51 51 51 50 50 51 52 52 51 50 49 48 47 48 46 45 44 44 43 41 40 40
22 25 27 30 33 35 37 40 41 43 44 45 46 47 48 49 49 50 49 49 50 50 51 51 51 52 52 53 53 52 49 48 46 45 46 45 44 43 42 42 41 40 39
24 26 28 30 33 35 37 39 40 41 43 44 46 47 47 47 47 46 46 47 48 48 50 50 51 52 52 51 51 50 49 48 47 46 45 44 43 43 41 41 40 39 37
25 27 29 31 32 34 36 37 38 39 40 42 44 45 45 45 45 44 45 45 46 48 49 50 50 50 49 48 47 46 46 46 45 44 42 41 41 41 41 41 40 38 37
27 29 32 33 34 35 36 37 37 38 39 41 41 42 43 44 45 45 45 45 45 46 47 48 48 47 46 45 44 44 43 43 43 43 42 40 40 40 40 39 38 37 36
Wind_Direction
246 247 249 250 251 250 251 253 255 255 256 257 258 258 260 261 263 264 265 267 269 271 272 273 274 276 278 279 280 282 284 287 289 292 295 297 298 299 300 302 303 304 306
246 247 249 250 251 251 251 253 255 256 256 257 258 259 260 262 264 265 266 268 269 271 271 272 274 276 277 278 279 280 282 285 288 291 293 295 296 297 298 299 301 302 304
246 246 248 249 250 251 252 253 254 255 256 257 258 259 261 263 264 266 267 268 270 271 271 272 274 275 276 277 278 279 280 282 285 288 291 293 294 295 296 297 298 301 302
245 246 247 248 249 250 252 253 254 255 256 257 258 260 261 263 265 267 268 269 270 271 272 273 274 275 275 276 276 277 278 280 282 286 288 290 291 292 294 296 296 298 299
244 245 246 247 248 250 252 253 254 254 255 257 259 260 262 263 266 268 269 270 271 272 273 273 273 275 275 275 275 276 277 278 279 283 286 288 289 289 291 294 295 296 297
243 244 245 246 248 250 252 253 254 254 255 257 259 260 262 264 265 267 269 271 272 273 274 274 274 275 275 274 273 274 275 276 278 281 284 286 286 288 289 291 293 294 295
243 243 244 245 247 249 250 252 253 254 256 258 259 261 262 264 265 267 270 272 273 274 274 274 276 275 274 273 273 273 273 275 277 278 281 283 285 285 287 289 290 292 293
241 242 243 245 247 250 251 251 253 255 258 260 261 262 263 265 266 268 269 271 273 274 275 275 275 275 274 274 273 273 273 274 275 277 280 282 283 284 286 288 290 290 292
240 242 244 246 248 250 252 254 255 257 259 261 263 264 266 267 267 268 269 271 272 272 273 274 275 275 273 273 274 273 274 274 275 277 280 281 282 283 286 287 289 290 291
240 242 245 247 248 249 251 254 256 257 259 261 264 266 268 269 270 269 268 269 270 270 271 273 274 274 273 273 273 274 274 273 274 277 279 280 281 282 283 286 288 289 288
242 243 244 247 248 249 250 253 256 260 261 262 265 267 269 271 272 272 271 270 270 269 270 272 273 274 273 271 272 273 274 274 275 275 277 278 279 281 282 283 285 286 286
243 244 245 246 247 249 252 254 257 261 263 264 267 269 270 272 273 273 274 273 269 268 270 272 273 273 272 271 271 271 272 273 274 275 276 276 277 278 280 281 283 283 283
242 242 244 246 248 250 252 254 257 261 264 266 269 271 272 273 274 275 275 275 272 270 271 271 272 271 270 269 269 270 271 272 272 273 274 274 275 277 278 280 280 280 280
243 243 245 247 250 252 254 256 259 262 264 266 269 271 273 274 274 276 277 277 275 273 272 272 271 271 271 270 269 269 270 271 271 272 273 273 274 275 277 279 278 278 278
244 246 247 249 251 254 255 257 260 263 265 266 268 271 273 275 276 277 278 279 277 274 273 272 271 271 272 271 270 269 270 271 271 270 271 271 271 273 276 277 277 276 277
246 248 250 252 253 254 257 259 262 265 266 268 269 271 274 277 278 279 280 280 277 275 274 273 272 271 272 272 270 269 269 270 270 269 269 269 271 272 273 274 274 274 274
247 249 250 252 255 258 259 261 264 267 269 271 272 273 276 279 280 279 279 278 276 274 273 274 274 273 272 272 271 270 270 270 269 269 268 268 270 272 272 272 272 271 271
248 252 254 255 256 259 261 263 266 269 271 274 276 277 279 281 281 280 279 279 277 275 275 275 275 274 274 272 271 271 271 271 270 270 269 270 270 271 272 271 269 268 268
255 256 257 259 260 260 262 264 268 271 274 276 277 279 281 282 282 281 281 280 278 277 276 277 277 276 275 273 272 271 271 270 270 271 271 270 270 270 269 269 267 266 266
258 259 260 262 265 265 265 266 270 274 277 278 280 280 280 281 280 280 280 280 279 278 277 278 277 276 276 275 274 272 271 270 270 271 270 270 270 269 267 266 264 264 264
262 264 266 268 270 272 271 271 273 277 280 281 282 281 280 280 280 280 280 279 279 277 277 277 276 276 276 276 274 273 271 271 270 270 269 269 268 266 265 264 263 261 261
270 270 272 274 274 276 276 276 278 280 281 281 282 283 282 281 280 279 279 279 280 278 276 276 275 276 276 276 274 273 271 269 268 268 267 267 265 263 262 261 259 261 260
279 277 279 281 282 281 280 281 283 284 282 281 283 284 283 282 281 279 278 279 279 278 277 276 276 277 276 274 273 271 271 268 266 265 264 262 261 263 262 260 258 259 259
289 287 285 287 288 287 286 287 286 285 285 284 285 286 286 283 281 280 279 280 279 278 277 276 277 277 276 275 273 271 271 269 266 263 262 260 259 260 260 258 256 256 258
293 292 292 291 292 290 289 288 288 289 288 288 289 289 288 285 282 281 281 280 279 278 278 278 278 277 275 272 269 268 268 268 266 263 260 260 259 259 257 256 256 255 254
295 295 295 294 293 293 292 290 291 291 291 292 293 292 290 288 284 281 281 281 281 281 281 280 277 276 274 271 267 266 266 265 264 262 259 259 258 257 256 255 253 253 252